Orbital Elements
Epoch 2025 May 5.0 TT = JDT 2460800.5
T 2023 Mar. 29.48627 TT Pike
q 3.6241531 (2000.0) P Q
z -0.0000729 Peri. 181.45182 -0.99909885 +0.00711058
+/-0.0000002 Node 2.61548 -0.02334841 +0.73122322
e 1.0002640 Incl. 113.51238 -0.03544500 -0.68210120
From 5271 observations 2019 Oct. 11-2025 Feb. 26, mean residual 0".9.
|